Terminal Aerodrome Forecast
Issued by NWS Columbia, SC

Home | Current Version | Previous Version | Text Only | Print | Product List | Glossary On
Versions: 1 2 3 4 5 6 7 8 9 10 11 12 13 14 15 16 17 18 19 20 21 22 23 24 25 26 27 28 29 30 31 32 33 34 35 36 37 38 39 40
712
FTAK31 PAJN 241739
TAFAGS
TAF
PAGS 241739Z 2418/2518 21003KT P6SM SCT025 OVC035
     FM242100 24008KT P6SM SCT035 BKN050
     FM250900 VRB03KT P6SM VCSH BKN025 OVC035
      AMD LTD TO CLD VIS AND WIND=

USA.gov is the U.S. government's official web portal to all federal, state and local government web resources and services.